Huvudsida
METAR-TAF:

METAR-TAF

Flygplatser :

Jask, Iran

latitud: 26-38N, longitud: 057-46E, höjd: 3 m

Aktuellt väderrapport

Denna rapport gjordes för 1 timme och 5 minuter sedan, klockan 04:00 UTC
Vind 2 kt varierande vindriktning
Temperatur 25°C
Fuktighet 65%
Tryck 1011 hPa
Sikt: 7000 m
Få moln på en höjd av 2500 ft
Brutna moln på en höjd av 8000 ft

METAR: OIZJ 200400Z VRB02KT 7000 FEW025 BKN080 25/18 Q1011

Tid: 08:35 (05:05 UTC)


TAF: saknas

Aktuella väderrapporter och prognoser från 4000 flygplatser (METAR- och TAF-rapporter).

De tillgängliga stationerna syns som gula och röda prickar på kartan.

För musen över prickarna för att se namnen på stationerna.

Klicka sedan för att få väderrapporter och prognoser.

För att ändra kartan: Klicka på de gröna knapparna med ett svart kors på för att zooma in; den gröna knappen med ett streck på för att zooma ut; eller på de gröna pilarna för angränsande kartor.


METAR-TAF: